Location: Peterborough
(44.3091°N, 78.3197°W)
Time: 04:45:40
(UTC-04:00)

S-56A Canister/Altair - Pass Details

Date: 29 March 2023
Orbit: 639 x 2492 km, 38.9° (Epoch: 08 June)

Event Time Altitude Azimuth Distance (km) Brightness Sun altitude
Rises 02:29:41 0° 283° (WNW) 6,086 12.0 -39.8°
Enters shadow 02:34:13 - 272° (W) 5,292 11.6 -39.4°
Reaches altitude 10° 02:35:07 10° 269° (W) 5,149 - -39.4°
Maximum altitude 02:44:34 20° 230° (SW) 4,254 - -38.6°
Drops below altitude 10° 02:53:26 10° 189° (S) 4,752 - -37.8°
Sets 02:58:14 0° 174° (S) 5,492 - -37.4°
